loading
|
Showing default

OPS 6577 (VELA 5), 1458

Orbit data source: Space-Track

OPS 6577 (VELA 5), 1458 is a payload satellite owned by USAF SSD (US) in HEO that was launched on Tue, 20 Jul 1965 UTC via an ATLAS AGENA D launch vehicle from the Air Force Eastern Test Range (AFETR). Payloads include a variety of satellites, spacecraft, and rockets equipped with specific instruments for various scientific and technological missions. These include communications satellites like Starlink; space stations such as the ISS; scientific satellites like the Hubble; Earth observation satellites from companies like Planet Labs, Umbra, and HawkEye 360; GPS; miniature CubeSats for education and research; and military/defense satellites.

Loading next visibility...
Loading greatness...
OPS 6577 (VELA 5) details
Identifier
1458, 1965-058A
Orbit
HEO
Last TLE updatein 2 days
Origin
Flag of USUSAF SSD (US)
ManufacturerTRW
Mission statusUnknown
MissionDefense Early Warn
Bus & MotorVELA, BE-3A
Mass~234 kg wet, 132 kg dry
Launch date (UTC)
1965-07-20 (59 years ago)
Launch vehicle
ATLAS AGENA D
Launch site
Air Force Eastern Test Range (AFETR)
Object type
Payload
Rocket body
Debris
Radar Cross SectionRCS unknown

Expand to show TLE details & history

TLE from in 2 days
0 OPS 6577 (VELA 5)
1 01458U 65058A   24263.71135317 -.00001013  00000-0  00000-0 0  9993
2 01458  23.5810  21.8953 4880077 293.5718   0.9684  0.21344263 10694
Epoch: 2024-09-19T17:04Z
Definitive object data (Epoch: 2024-09-19T17:04:20.913Z)
Latitude-21.83984°
Longitude59.9093°
Altitude54,194.679 km
Speed3.129 km/s
True Right ascension21h 00m 21s
True Declination-21° 49' 33"
Sunlit
Object was in daylight at TLE epoch
Predictive object data (real-time)
Latitude17.04371°
Longitude-98.08673°
Altitude162,128.105 km
Speed1.167 km/s
Apparent Right ascension10h 21m 30s
Apparent Declination15° 47' 28"
Sunlit
Object is in daylight
Predictive observer data (real-time)
Local Sidereal Time15:42:26
Azimuth276.256° WNW
Elevation17.448°
Doppler factor1
Orbital elements
Apogee169,611.896 km
Perigee54,176.349 km
Semi-major axis118,272.26 km
Eccentricity0.4880077
Inclination23.581°
RAAN21.8953°
Arg. of periapsis293.5718°
True anomaly3.22338°
Mean anomaly0.9684°
Eccentric anomaly1.89111°
Mean motion0.05336 °/min
BSTARUnknown
Period6746.58 mins
No data available

OPS 6577 (VELA 5) Visibility forecast

Observer location: 39.9160978°, -105.1181434

OPS 6577 (VELA 5) is not visible in the next 10 days
Span
Click to sort rows by Start time (UTC) header in descending order
Start Az.
Max El. time (UTC)
Max El. Az.
Max El.
End time (UTC)
End Az.